TimePDT,TemperatureF,Dew PointF,Humidity,Sea Level PressureIn,VisibilityMPH,Wind Direction,Wind SpeedMPH,Gust SpeedMPH,PrecipitationIn,Events,Conditions,WindDirDegrees,DateUTC
12:53 AM,87.1,52.0,30,29.82,10.0,North,5.8,-,N/A,,Clear,350,2013-07-03 07:53:00
1:53 AM,79.0,60.1,52,29.83,10.0,Calm,Calm,-,N/A,,Clear,0,2013-07-03 08:53:00
2:53 AM,81.0,54.0,39,29.81,10.0,NNW,4.6,-,N/A,,Clear,340,2013-07-03 09:53:00
3:53 AM,80.1,54.0,40,29.81,10.0,Calm,Calm,-,N/A,,Clear,0,2013-07-03 10:53:00
4:53 AM,78.1,55.9,46,29.82,10.0,West,4.6,-,N/A,,Clear,280,2013-07-03 11:53:00
5:53 AM,75.0,57.0,53,29.84,10.0,West,4.6,-,N/A,,Clear,260,2013-07-03 12:53:00
6:53 AM,77.0,54.0,45,29.86,10.0,WNW,4.6,-,N/A,,Clear,290,2013-07-03 13:53:00
7:53 AM,80.1,57.0,45,29.87,10.0,NW,4.6,-,N/A,,Clear,310,2013-07-03 14:53:00
8:53 AM,82.9,57.9,42,29.86,10.0,Calm,Calm,-,N/A,,Clear,0,2013-07-03 15:53:00
9:53 AM,86.0,60.1,41,29.85,10.0,West,5.8,-,N/A,,Clear,270,2013-07-03 16:53:00
10:53 AM,91.0,57.9,33,29.84,10.0,Variable,4.6,-,N/A,,Clear,0,2013-07-03 17:53:00
11:53 AM,93.9,57.9,30,29.83,10.0,Calm,Calm,-,N/A,,Clear,0,2013-07-03 18:53:00
12:53 PM,97.0,59.0,28,29.82,10.0,Variable,4.6,-,N/A,,Clear,0,2013-07-03 19:53:00
1:53 PM,100.0,63.0,29,29.80,10.0,SE,6.9,-,N/A,,Clear,130,2013-07-03 20:53:00
2:53 PM,102.0,57.0,22,29.76,10.0,Variable,3.5,-,N/A,,Clear,0,2013-07-03 21:53:00
3:53 PM,100.0,57.9,25,29.74,10.0,West,5.8,-,N/A,,Clear,280,2013-07-03 22:53:00
4:53 PM,100.0,59.0,26,29.72,8.0,Calm,Calm,-,N/A,,Clear,0,2013-07-03 23:53:00
5:53 PM,99.0,63.0,30,29.70,10.0,Calm,Calm,-,N/A,,Clear,0,2013-07-04 00:53:00
6:53 PM,98.1,59.0,27,29.69,10.0,NW,4.6,-,N/A,,Clear,310,2013-07-04 01:53:00
7:53 PM,96.1,60.1,30,29.69,10.0,NW,8.1,-,N/A,,Clear,310,2013-07-04 02:53:00
8:53 PM,93.0,63.0,37,29.70,10.0,NW,8.1,-,N/A,,Clear,320,2013-07-04 03:53:00
9:53 PM,88.0,64.9,46,29.72,10.0,Calm,Calm,-,N/A,,Clear,0,2013-07-04 04:53:00
10:53 PM,80.1,66.9,64,29.73,10.0,Calm,Calm,-,N/A,,Clear,0,2013-07-04 05:53:00
11:53 PM,77.0,64.9,66,29.73,10.0,Calm,Calm,-,N/A,,Clear,0,2013-07-04 06:53:00